Regional Weather Roundup
Issued by NWS

Home | Current Version | Previous Version | Text Only | Print | Product List | Glossary On
Versions: 1 2 3 4 5 6 7 8 9 10 11 12 13 14 15 16 17 18 19 20 21 22 23 24 25 26 27 28 29 30 31 32 33 34 35 36 37 38 39 40 41 42 43 44 45 46 47 48 49 50
000
ASPQ40 PGUM 031714
RWRPQ
WEATHER ROUNDUP FOR THE MARIANAS AND MICRONESIA
NATIONAL WEATHER SERVICE TIYAN GU
300 AM CHST TUE AUG 04 2015

GUZ001>004-031800-
MARIANA ISLANDS-

CITY           SKY/WX    TMP DP  RH WIND       PRES   REMARKS
GUAM AIRPORT   LGT RAIN  77  75  94 SE5       29.62S
ANDERSEN AFB   LGT RAIN  77  73  88 SW17      29.63
ROTA AIRPORT   NOT AVBL
TINIAN AP      NOT AVBL
SAIPAN AP      NOT AVBL

$$

PMZ161-031800-
REPUBLIC OF PALAU-

CITY           SKY/WX    TMP DP  RH WIND       PRES   REMARKS
KOROR AP       CLOUDY    81  75  83 SW15G21   29.73F
KOROR WSO      CLOUDY    82  73  74 W12G25    29.75F

$$

PMZ171>174-031800-
FEDERATED STATES OF MICRONESIA-

CITY           SKY/WX    TMP DP  RH WIND       PRES   REMARKS
YAP AIRPORT    MOCLDY    82  77  83 SW16      29.66F HX  91
CHUUK AP       LGT RAIN  77  77 100 SW14      29.78F
POHNPEI AP     NOT AVBL
POHNPEI WSO    CLOUDY    77  77 100 CALM      29.80S
KOSRAE AP      NOT AVBL

$$

PMZ181-031800-
REPUBLIC OF THE MARSHALL ISLANDS-

CITY           SKY/WX    TMP DP  RH WIND       PRES   REMARKS
KWAJALEIN AP   CLEAR     82  73  74 CALM      29.75R
MAJURO AP      NOT AVBL
MAJURO WSO     CLOUDY    82  77  83 E6        29.72R HX  91

$$



USA.gov is the U.S. government's official web portal to all federal, state and local government web resources and services.